Home   Weather   Kriens   Past weeks

Flag for Switzerland Past Weather in Kriens, Lucerne, Switzerland — Yesterday and Last 2 Weeks

Now
50 °F

Cool.


Feels Like: 48 °F
Forecast: 41 / 46 °F
Wind: 6 mph from Northeast

Location: Giswil

Current Time: Apr 25, 2017 at 6:44:54 pm

Latest Report: Apr 25, 2017 at 6:00 pm


Visibility: N/A

Pressure: 29.76 "Hg

Humidity: 97%

Dew Point: 50 °F

Location of KriensLocation

Past Weather in Kriens — Graph

°F

Kriens Temperature Yesterday

Maximum temperature yesterday: 65 °F (at 7:00 pm)
Minimum temperature yesterday: 31 °F (at 7:00 am)
Average temperature yesterday: 47 °F

High & Low Weather Summary for the Past Weeks

 TemperatureHumidityPressure
High74 °F (Apr 10, 5:00 pm)100% (Apr 12, 8:00 am)30.59 "Hg (Apr 12, 8:00 am)
Low23 °F (Apr 21, 6:00 am)25% (Apr 21, 5:00 pm)29.74 "Hg (Apr 25, 1:00 pm)
Average47 °F76%30.18 "Hg
* Reported Apr 10 5:00 pm — Apr 25 5:00 pm, Kriens, Weather by CustomWeather, © 2017

Note: Actual official high and low records may vary slightly from our data, if they occured in-between our weather recording intervals... More about our weather records

Advertising

Kriens Weather History for the Previous 24 Hours

Scroll right to see more
 ConditionsComfort  
Time TempWeatherWind HumidityBarometerVisibility
5:00 pm
Tue, Apr 25
51 °FCool.5 mph91%29.77 "HgN/A
4:00 pm53 °FCool.1 mph81%29.77 "HgN/A
3:00 pm53 °FCool.13 mph71%29.78 "HgN/A
2:00 pm56 °FCool.8 mph65%29.77 "HgN/A
1:00 pm60 °FCool.2 mph60%29.74 "HgN/A
12:00 pm58 °FCool.1 mph64%29.77 "HgN/A
11:00 am58 °FRefreshingly cool.2 mph59%29.77 "HgN/A
10:00 am56 °FCool.1 mph65%29.78 "HgN/A
9:00 am53 °FCool.1 mph75%29.79 "HgN/A
8:00 am50 °FCool.1 mph87%29.80 "HgN/A
7:00 am46 °FCool.2 mph95%29.82 "HgN/A
6:00 am46 °FCool.3 mph94%29.81 "HgN/A
5:00 am45 °FCool.2 mph93%29.82 "HgN/A
4:00 am46 °FCool.2 mph90%29.83 "HgN/A
3:00 am42 °FQuite cool.2 mph98%29.87 "HgN/A
2:00 am40 °FQuite cool.1 mph97%29.88 "HgN/A
1:00 am42 °FQuite cool.2 mph94%29.88 "HgN/A
12:00 am44 °FQuite cool.1 mph88%29.88 "HgN/A
11:00 pm
Mon, Apr 24
45 °FQuite cool.1 mph84%29.89 "HgN/A
10:00 pm46 °FCool.2 mph84%29.89 "HgN/A
9:00 pm51 °FCool.2 mph78%29.88 "HgN/A
8:00 pm57 °FCool.2 mph73%29.85 "HgN/A
7:00 pm65 °FMild.No wind40%29.84 "HgN/A
6:00 pm65 °FMild.1 mph39%29.86 "HgN/A
Weather by CustomWeather, © 2017

See weather overviewHow to use our weather pages